• In Kazakhstan
  • List of Countries
  • For 7 days
  • Water Temperature
  • Weather Map
  • News
  • Weather Widgets
  • user-avatar
    Login

    Hourly Weather Prutz

    Today, 29 February, Saturday

    Time Temperature Precipitation Wind Pressure Humidity
    00:00 -7°C° 0 mm 3 mps 629 mmHg 55%
    01:00 -8°C° 0 mm 4 mps 629 mmHg 57%
    02:00 -8°C° 0 mm 4 mps 629 mmHg 60%
    03:00 -7°C° 0 mm 4 mps 628 mmHg 63%
    04:00 -7°C° 0 mm 4 mps 628 mmHg 66%
    05:00 -7°C° 0 mm 4 mps 628 mmHg 68%
    06:00 -5°C° 0 mm 3 mps 628 mmHg 69%
    07:00 -5°C° 0 mm 3 mps 627 mmHg 71%
    08:00 -4°C° 0 mm 3 mps 627 mmHg 73%
    09:00 -3°C° 0 mm 4 mps 627 mmHg 75%
    10:00 -2°C° 0 mm 4 mps 626 mmHg 78%
    11:00 -1°C° 0 mm 4 mps 626 mmHg 80%
    12:00 -1°C° 0 mm 4 mps 626 mmHg 82%
    13:00 0°C° 0 mm 4 mps 625 mmHg 84%
    14:00 -1°C° 0 mm 4 mps 625 mmHg 84%
    15:00 -1°C° 0 mm 4 mps 624 mmHg 83%
    16:00 -1°C° 0 mm 4 mps 624 mmHg 83%
    17:00 -3°C° 0 mm 4 mps 624 mmHg 83%
    18:00 -4°C° 0 mm 4 mps 623 mmHg 84%
    19:00 -7°C° 0 mm 4 mps 623 mmHg 84%
    20:00 -7°C° 0 mm 4 mps 623 mmHg 85%
    21:00 -7°C° 0 mm 4 mps 623 mmHg 85%
    22:00 -7°C° 0 mm 4 mps 623 mmHg 86%
    23:00 -7°C° 0 mm 4 mps 623 mmHg 86%

    Tomorrow, 1 March, Sunday

    Time Temperature Precipitation Wind Pressure Humidity
    00:00 -6°C° 0 mm 3 mps 623 mmHg 87%
    01:00 -6°C° 0 mm 3 mps 623 mmHg 87%
    02:00 -6°C° 0 mm 3 mps 623 mmHg 87%
    03:00 -6°C° 0 mm 3 mps 623 mmHg 87%
    04:00 -5°C° 0 mm 2 mps 622 mmHg 87%
    05:00 -5°C° 0.1 mm 2 mps 622 mmHg 89%
    06:00 -5°C° 0.1 mm 2 mps 622 mmHg 90%
    07:00 -5°C° 0.1 mm 2 mps 622 mmHg 92%
    08:00 -1°C° 0.6 mm 1 mps 622 mmHg 93%
    09:00 0°C° 0.6 mm 1 mps 623 mmHg 94%
    10:00 +1°C° 0.6 mm 1 mps 623 mmHg 94%
    11:00 +1°C° 0.7 mm 1 mps 623 mmHg 96%
    12:00 +1°C° 0.7 mm 1 mps 622 mmHg 97%
    13:00 +2°C° 0.7 mm 1 mps 622 mmHg 98%
    14:00 +2°C° 0.2 mm 1 mps 622 mmHg 97%
    15:00 +2°C° 0.2 mm 1 mps 621 mmHg 97%
    16:00 +2°C° 0.2 mm 1 mps 621 mmHg 96%
    17:00 +1°C° 0.1 mm 1 mps 620 mmHg 96%
    18:00 0°C° 0.1 mm 1 mps 620 mmHg 97%
    19:00 -1°C° 0.1 mm 1 mps 620 mmHg 98%
    20:00 -1°C° 0.3 mm 1 mps 619 mmHg 97%
    21:00 -1°C° 0.3 mm 1 mps 619 mmHg 96%
    22:00 -1°C° 0.3 mm 1 mps 619 mmHg 95%
    23:00 -2°C° 0.2 mm 1 mps 619 mmHg 94%

    Day after tomorrow, 2 March, Monday

    Time Temperature Precipitation Wind Pressure Humidity
    00:00 -3°C° 0.2 mm 1 mps 618 mmHg 93%
    01:00 -3°C° 0.2 mm 1 mps 618 mmHg 91%
    02:00 -6°C° 0.3 mm 2 mps 618 mmHg 89%
    03:00 -6°C° 0.3 mm 2 mps 618 mmHg 87%
    04:00 -6°C° 0.3 mm 2 mps 617 mmHg 86%
    05:00 -7°C° 0 mm 2 mps 617 mmHg 82%
    06:00 -8°C° 0 mm 3 mps 617 mmHg 78%
    07:00 -8°C° 0 mm 3 mps 617 mmHg 74%
    08:00 -6°C° 0 mm 3 mps 617 mmHg 77%
    09:00 -4°C° 0 mm 4 mps 617 mmHg 79%
    10:00 -2°C° 0 mm 4 mps 617 mmHg 82%
    11:00 -2°C° 0 mm 4 mps 617 mmHg 83%
    12:00 0°C° 0 mm 3 mps 617 mmHg 85%
    13:00 +1°C° 0 mm 3 mps 617 mmHg 86%
    14:00 +1°C° 0.1 mm 3 mps 616 mmHg 88%
    15:00 +1°C° 0.1 mm 2 mps 615 mmHg 90%
    16:00 +1°C° 0.1 mm 2 mps 614 mmHg 91%
    17:00 -1°C° 1.1 mm 2 mps 614 mmHg 93%
    18:00 +1°C° 1.1 mm 1 mps 614 mmHg 95%
    19:00 0°C° 1.1 mm 1 mps 614 mmHg 97%
    20:00 -2°C° 1.7 mm 2 mps 614 mmHg 97%
    21:00 -3°C° 1.7 mm 2 mps 614 mmHg 97%
    22:00 -4°C° 1.7 mm 3 mps 614 mmHg 96%
    23:00 -5°C° 1.1 mm 3 mps 614 mmHg 96%

    3 March, Tuesday

    Time Temperature Precipitation Wind Pressure Humidity
    00:00 -6°C° 1.1 mm 3 mps 614 mmHg 96%
    01:00 -5°C° 1.1 mm 2 mps 614 mmHg 96%
    02:00 -5°C° 0.7 mm 2 mps 615 mmHg 96%
    03:00 -6°C° 0.7 mm 2 mps 615 mmHg 96%
    04:00 -6°C° 0.7 mm 2 mps 615 mmHg 96%
    05:00 -7°C° 0.4 mm 2 mps 616 mmHg 96%
    06:00 -7°C° 0.4 mm 2 mps 616 mmHg 95%
    07:00 -7°C° 0.4 mm 2 mps 617 mmHg 95%
    08:00 -8°C° 0.2 mm 3 mps 617 mmHg 93%
    09:00 -7°C° 0.2 mm 3 mps 618 mmHg 91%
    10:00 -7°C° 0.2 mm 3 mps 618 mmHg 88%
    11:00 -6°C° 0.1 mm 3 mps 619 mmHg 87%
    12:00 -6°C° 0.1 mm 3 mps 619 mmHg 86%
    13:00 -5°C° 0.1 mm 3 mps 619 mmHg 85%
    14:00 -5°C° 0.3 mm 3 mps 620 mmHg 85%
    15:00 -5°C° 0.3 mm 3 mps 620 mmHg 85%
    16:00 -5°C° 0.3 mm 3 mps 620 mmHg 86%
    17:00 -6°C° 0.2 mm 2 mps 620 mmHg 89%
    18:00 -7°C° 0.2 mm 2 mps 621 mmHg 92%
    19:00 -7°C° 0.2 mm 1 mps 621 mmHg 95%
    20:00 -8°C° 0 mm 1 mps 621 mmHg 93%
    21:00 -9°C° 0 mm 1 mps 621 mmHg 92%
    22:00 -10°C° 0 mm 1 mps 621 mmHg 90%
    23:00 -10°C° 0 mm 1 mps 621 mmHg 87%

    4 March, Wednesday

    Time Temperature Precipitation Wind Pressure Humidity
    00:00 -13°C° 0 mm 2 mps 621 mmHg 85%
    01:00 -13°C° 0 mm 2 mps 621 mmHg 82%
    02:00 -13°C° 0 mm 2 mps 621 mmHg 82%
    03:00 -12°C° 0 mm 2 mps 621 mmHg 82%
    04:00 -12°C° 0 mm 2 mps 621 mmHg 83%
    05:00 -12°C° 0 mm 2 mps 621 mmHg 83%
    06:00 -11°C° 0 mm 1 mps 621 mmHg 83%
    07:00 -11°C° 0 mm 1 mps 621 mmHg 83%
    08:00 -8°C° 0 mm 1 mps 622 mmHg 79%
    09:00 -6°C° 0 mm 1 mps 623 mmHg 75%
    10:00 -3°C° 0 mm 1 mps 623 mmHg 71%
    11:00 -2°C° 0 mm 1 mps 624 mmHg 72%
    12:00 -1°C° 0 mm 1 mps 624 mmHg 72%
    13:00 -1°C° 0 mm 1 mps 624 mmHg 73%
    14:00 -1°C° 0 mm 1 mps 623 mmHg 76%
    15:00 -1°C° 0 mm 1 mps 623 mmHg 79%
    16:00 -1°C° 0 mm 1 mps 623 mmHg 82%
    17:00 -3°C° 0 mm 1 mps 623 mmHg 87%
    18:00 -6°C° 0 mm 1 mps 623 mmHg 91%
    19:00 -8°C° 0 mm 1 mps 623 mmHg 96%
    20:00 -8°C° 0 mm 1 mps 623 mmHg 94%
    21:00 -8°C° 0 mm 1 mps 623 mmHg 93%
    22:00 -8°C° 0 mm 1 mps 624 mmHg 91%
    23:00 -10°C° 0 mm 2 mps 623 mmHg 88%

    5 March, Thursday

    Time Temperature Precipitation Wind Pressure Humidity
    00:00 -10°C° 0 mm 2 mps 623 mmHg 85%
    01:00 -12°C° 0 mm 2 mps 623 mmHg 82%
    02:00 -12°C° 0 mm 2 mps 623 mmHg 79%
    03:00 -12°C° 0 mm 2 mps 623 mmHg 76%
    04:00 -12°C° 0 mm 2 mps 623 mmHg 72%
    05:00 -10°C° 0 mm 2 mps 623 mmHg 70%
    06:00 -10°C° 0 mm 2 mps 623 mmHg 68%
    07:00 -9°C° 0 mm 2 mps 623 mmHg 66%
    08:00 -7°C° 0 mm 2 mps 623 mmHg 66%
    09:00 -5°C° 0 mm 2 mps 624 mmHg 67%
    10:00 -2°C° 0 mm 2 mps 624 mmHg 67%
    11:00 -2°C° 0 mm 2 mps 624 mmHg 71%
    12:00 -1°C° 0 mm 2 mps 624 mmHg 75%
    13:00 +1°C° 0 mm 2 mps 624 mmHg 79%
    14:00 +1°C° 0 mm 2 mps 623 mmHg 81%
    15:00 +1°C° 0 mm 2 mps 623 mmHg 84%
    16:00 +1°C° 0 mm 2 mps 623 mmHg 86%
    17:00 -1°C° 0.2 mm 2 mps 623 mmHg 88%
    18:00 -2°C° 0.2 mm 2 mps 622 mmHg 90%
    19:00 -4°C° 0.2 mm 3 mps 622 mmHg 92%
    20:00 -5°C° 0.2 mm 3 mps 622 mmHg 93%
    21:00 -4°C° 0.2 mm 2 mps 622 mmHg 93%
    22:00 -5°C° 0.2 mm 2 mps 622 mmHg 93%
    23:00 -5°C° 0.1 mm 2 mps 622 mmHg 92%
    Show more